Anyel

Premium: No
World: Pharos
Last Login: 18th June 2021 01:09:33
Level: 59
Class: Mage (Shaman)
Murderer: No (5 kills left in 24 hours)
Guild: (No guild)
Oie, eu jogava Zezenia a muito tempo atras com meus amigos... estou voltando jogar agora porém nosso mundo aparentemente deixou de existir e o pessoal começou a jogar em outro servidor chamado Pharos... porém gostaria muito de passar este char especificamente para la pois tenho história com ele... não é a mesma coisa criar characteres novos como estou fazendo. Por favor gostaria de transferir este char de servidor para Pharos, ficaria muito agradecido se me ajudassem
Achievements
This player has 330 (41.25%) achievement points.

Mainlander, Tasker, Grand Tasker, Upgrade!, Millionaire, Fisherman, Great Fisherman, Sailor, Professional Merchant, Dragon Slayer, Spellcaster, Regularly Blessed, Dungeoneering Apprentice, Brewer, Master Brewer, Preserver of Blood, Survivor of War, Phantom Annihilator, Pearl Diver
Death Date Killed By At Level Justified
16th June 2021 21:20:42 a dire boar 60 Yes
16th June 2021 18:53:42 an orknie enchanter 61 Yes
14th June 2021 18:26:02 Xiio Caklao 62 Yes
14th June 2021 16:50:04 Srlosk 63 Yes
14th June 2021 15:56:50 Soutlongin Ranger 64 Yes
14th June 2021 15:51:39 Soutlongin Ranger 65 Yes
14th June 2021 14:35:35 Caste Jr 66 Yes
Kill Date Victim Victim Level Justified
14th June 2021 16:10:24 Soutlongin Ranger 95 No
9th June 2021 00:28:15 Wosss 95 Yes
9th June 2021 00:14:59 Wosss 96 Yes
8th June 2021 23:22:52 Zenedarkz 51 Yes
7th June 2021 16:04:42 Royal Videl 77 No
7th June 2021 15:53:19 Tinenqo 153 No
7th June 2021 15:43:15 Racter 159 Yes
6th June 2021 18:03:01 Mago Red 98 Yes
6th June 2021 17:59:18 Servo De Deus 128 Yes
6th June 2021 17:47:54 Zenedarkz 60 No
3rd June 2021 15:58:45 Zenedarkz 65 Yes
3rd June 2021 15:58:30 Paladin Tankea 50 Yes
3rd June 2021 15:58:19 Mago Red 104 Yes
3rd June 2021 15:50:37 Bullsss 47 No
3rd June 2021 15:50:04 Mago Red 104 No
3rd June 2021 15:48:29 Bullsss 47 No
3rd June 2021 15:48:01 Mago Red 105 No
3rd June 2021 15:42:40 Mago Red 106 Yes
3rd June 2021 15:41:38 Frias 54 No
3rd June 2021 15:40:08 Frias 54 Yes
3rd June 2021 15:39:58 Mago Red 107 Yes
3rd June 2021 15:35:59 Anadenanthera 78 No
3rd June 2021 15:25:56 Ranger Fexisa 46 Yes
2nd June 2021 18:25:37 Skillereal 124 Yes
2nd June 2021 18:19:57 Skillereal 126 Yes
2nd June 2021 18:19:35 Srlosk 158 No
2nd June 2021 18:11:42 Skillereal 127 Yes
2nd June 2021 18:10:15 Star Diamond 50 Yes
2nd June 2021 18:08:44 Mage Mau 42 Yes
2nd June 2021 18:08:19 Skillereal 128 Yes
2nd June 2021 18:07:12 Wosss 103 Yes
2nd June 2021 18:05:28 Star Diamond 50 Yes
2nd June 2021 17:53:19 Black Panter 60 No
2nd June 2021 17:50:38 Black Panter 60 No
2nd June 2021 16:39:58 Prodigi 64 Yes
2nd June 2021 16:29:08 Hesperus 45 Yes
1st June 2021 21:07:45 Perito 207 No
1st June 2021 19:39:51 Paladin Tankea 61 Yes
1st June 2021 19:06:31 Mage Mau 42 Yes
1st June 2021 18:03:07 Prodigi 65 Yes
1st June 2021 18:01:34 Red Wine 143 Yes
1st June 2021 17:54:59 Prodigi 66 Yes
1st June 2021 16:08:47 Paladin Tankea 63 No
1st June 2021 15:58:13 Corsitto 81 No
15th May 2021 05:25:53 Mighty Shaman 107 Yes
15th May 2021 05:17:50 Mighty Shaman 108 Yes
11th May 2021 22:37:36 Gogopvp 38 Yes
11th May 2021 22:37:29 Aaronn 29 Yes
11th May 2021 22:33:11 Aaronn 30 Yes
11th May 2021 21:06:15 Aaronn 30 Yes
11th May 2021 07:28:14 Mighty Shaman 116 Yes
11th May 2021 05:46:10 Bustillus 77 Yes
11th May 2021 05:32:39 Baron Rojoo 110 No
11th May 2021 05:32:15 Rock Stars 123 No
11th May 2021 05:14:19 Rock Stars 124 No
11th May 2021 05:05:00 Bustillus 78 No
11th May 2021 05:04:38 Rock Stars 125 Yes
11th May 2021 05:02:38 Baron Rojoo 111 Yes
11th May 2021 04:51:01 Baron Rojoo 112 No
11th May 2021 04:48:08 Baron Rojoo 113 No
11th May 2021 04:42:16 Rock Stars 129 Yes
11th May 2021 04:41:23 Baron Rojoo 116 Yes
10th May 2021 17:53:52 Baron Rojoo 118 No
9th May 2021 15:17:18 Mois 47 No
28th April 2021 04:33:08 Boom Truck 93 No
28th April 2021 04:31:10 Caballo 90 No
28th April 2021 04:30:14 Caballo 90 No
4th April 2021 22:59:59 Creamy Bacon 97 No
4th April 2021 22:57:34 Creamy Bacon 98 Yes
4th April 2021 22:47:59 Shojoji 187 No
4th April 2021 22:42:53 Shucredimilson 105 No
4th April 2021 22:40:46 Shucredimilson 105 No
4th April 2021 22:39:03 Yixing 49 No
1st April 2021 06:14:34 Caballo 96 No
1st April 2021 06:12:34 Caballo 97 No
1st April 2021 05:47:53 Clubber Lang 75 No
1st April 2021 05:43:05 Clubber Lang 75 No
1st April 2021 05:41:00 Clubber Lang 76 No
1st April 2021 05:40:03 Clubber Lang 76 No
1st April 2021 05:33:06 Lynv 33 No
20th March 2021 03:00:30 Noob Da Dp 49 No
20th March 2021 02:56:35 Noob Da Dp 50 No
20th March 2021 02:55:04 Noob Da Dp 50 No
12th March 2021 15:48:48 Creamy Bacon 106 No
12th March 2021 15:41:12 Creamy Bacon 106 No
12th March 2021 15:17:40 Anadenanthera 67 No
8th March 2021 07:58:07 Mitoz 311 No
26th February 2021 18:23:10 Ommin The Great 62 Yes
29th January 2021 12:05:36 Perigo De Incendio 68 Yes
29th January 2021 12:01:29 Windows Sete 102 No
29th January 2021 11:59:53 Perigo De Incendio 69 No
29th January 2021 11:59:41 Windows Sete 103 No
29th January 2021 11:56:26 Windows Sete 103 No
29th January 2021 11:55:53 Windows Sete 104 No
29th January 2021 11:54:26 Jeffx 128 Yes
29th January 2021 11:54:15 Perigo De Incendio 69 No
29th January 2021 11:52:34 Perigo De Incendio 70 No
29th January 2021 11:51:35 Windows Sete 106 No
29th January 2021 11:47:55 Windows Sete 107 Yes
28th January 2021 20:17:19 Death Curse 114 No
28th January 2021 15:54:58 Kawaki 239 No
28th January 2021 15:33:35 Kawaki 241 No
25th January 2021 05:30:30 Naily 73 Yes
25th January 2021 04:34:25 Chimbongo 53 Yes
25th January 2021 04:20:08 Elefante Africano 314 Yes
23rd January 2021 18:10:56 Noob Da Dp 68 No
23rd January 2021 00:52:13 Kfdkfw 75 Yes
21st January 2021 02:02:34 Srzezenia 219 No
21st January 2021 02:00:03 Naily 86 Yes
20th January 2021 03:33:17 Naily 109 No
19th January 2021 22:47:56 Piwill 84 No
19th January 2021 08:49:37 Hazzer 249 No
19th January 2021 07:59:07 Vortex 274 No
19th January 2021 06:13:57 Servo De Deus 149 No